Hourly Data Report for October 04, 2013

All times are specified in Local Standard Time (LST). Add 1 hour to adjust for Daylight Saving Time where and when it is observed.

HALL BEACH A
NUNAVUT

68°46'33.000" N
81°14'33.000" W
9.10 m
2402354
71293
YUX

Download Data

Hourly Data (October 2013)
Hourly Data Report for October 4, 2013
Temp Definition
°C
Dew Point Temp Definition
°C
Rel Hum Definition
%
Wind Dir Definition
10's deg

Wind Spd Definition
km/h
Visibility Definition
km
Stn Press Definition
kPa
Hmdx Definition


Wind Chill Definition


Weather Definition


TIME
00:00 Legend Double Dagger -6.3 -8.6 84 34 30 16.1 102.07   -15 LegendNANA
01:00 Legend Double Dagger -6.6 -9.5 80 35 32 16.1 102.09   -15 LegendNANA
02:00 Legend Double Dagger -6.4 -9.1 81 35 28 16.1 102.11   -15 LegendNANA
03:00 Legend Double Dagger -7.4 -9.1 88 31 21 16.1 102.15   -15 LegendNANA
04:00 Legend Double Dagger -6.6 -8.8 84 33 26 16.1 102.16   -15 LegendNANA
05:00 Legend Double Dagger -6.4 -9.3 80 34 30 16.1 102.21   -15 LegendNANA
06:00 Legend Double Dagger -6.4 -9.1 81 33 32 16.1 102.23   -15 LegendNANA
07:00 Legend Double Dagger -6.9 -10.0 79 34 35 16.1 102.26   -16 LegendNANA
08:00 Legend Double Dagger -6.9 -10.1 78 35 37 16.1 102.27   -16 LegendNANA
09:00 Legend Double Dagger -6.7 -9.5 81 33 33 16.1 102.29   -16 LegendNANA
10:00 Legend Double Dagger -6.5 -9.4 80 33 35 16.1 102.30   -16 LegendNANA
11:00 Legend Double Dagger -6.2 -9.2 80 32 32 16.1 102.30   -15 LegendNANA
12:00 Legend Double Dagger -5.9 -9.0 79 34 28 16.1 102.29   -14 LegendNANA
13:00 Legend Double Dagger -5.2 -8.5 78 33 33 16.1 102.29   -14 LegendNANA
14:00 Legend Double Dagger -4.9 -8.7 75 33 32 16.1 102.33   -13 LegendNANA
15:00 Legend Double Dagger -5.1 -8.8 75 33 32 16.1 102.31   -13 LegendNANA
16:00 Legend Double Dagger -4.8 -8.6 75 33 41 16.1 102.29   -14 LegendNANA
17:00 Legend Double Dagger -5.4 -9.0 76 35 30 16.1 102.32   -14 LegendNANA
18:00 Legend Double Dagger -6.0 -9.6 76 36 28 16.1 102.32   -14 LegendNANA
19:00 Legend Double Dagger -5.9 -9.2 78 34 24 16.1 102.33   -13 LegendNANA
20:00 Legend Double Dagger -6.2 -8.8 82 31 18 16.1 102.32   -13 LegendNANA
21:00 Legend Double Dagger -6.8 -8.8 86 33 22 16.1 102.30   -14 LegendNANA
22:00 Legend Double Dagger -6.9 -8.7 87 33 18 16.1 102.29   -14 LegendNANA
23:00 Legend Double Dagger -7.0 -8.7 88 32 15 16.1 102.29   -13 LegendNANA

Notes on Data Quality.

Legend

  • E = Estimated
  • M = Missing
  • NA = Not Available
  • ‡ = Partner data that is not subject to review by the National Climate Archives
Date modified: